Weather History for KGRI - June, 2013

Change the Weather History Date:

Thursday, June 27, 2013

  Actual Average Record
Temperature  
Mean Temperature 80 °F 75 °F  
Max Temperature 88 °F 87 °F 107 °F (2012)
Min Temperature 72 °F 63 °F 47 °F (1968)
Degree Days  
Heating Degree Days 0 0  
Month to date heating degree days 21 21  
Since 1 June heating degree days 21 21  
Since 1 July heating degree days 6133 6196  
Cooling Degree Days 15 10  
Month to date cooling degree days 233 181  
Year to date cooling degree days 328 246  
Since 1 June cooling degree days 233 181  
Growing Degree Days 30 (Base 50)    
Moisture  
Dew Point 65 °F    
Average Humidity 65    
Maximum Humidity 84    
Minimum Humidity 45    
Precipitation  
Precipitation 0.09 in 0.14 in 1.52 in (1906)
Month to date precipitation 1.63 3.92  
Year to date precipitation 15.00 13.87  
Snow  
Snow 0.00 in 0.00 in - ()
Month to date snowfall 0.0 0.0  
Since 1 June snowfall 0.0 0.0  
Since 1 July snowfall 35.2 29.0  
Snow Depth 0.00 in    
Sea Level Pressure  
Sea Level Pressure 29.93 in    
Wind  
Wind Speed 10 mph (ESE)    
Max Wind Speed 18 mph    
Max Gust Speed 27 mph    
Visibility 10 miles    
Events Rain , Thunderstorm    
T = Trace of Precipitation, MM = Missing Value Source: NWS Daily Summary

Daily Weather History Graph

Daily Weather History Graph

Search for Another Location

Airport or City:

Trip Planner

Search our weather history database for the weather conditions in past years. The results will help you decide how hot, cold, wet, or windy it might be!

Date:

Astronomy

Jun. 27, 2013 Rise Set
Actual Time 6:03 AM CDT 9:09 PM CDT
Civil Twilight 5:29 AM CDT 9:42 PM CDT
Nautical Twilight 4:46 AM CDT 10:25 PM CDT
Astronomical Twilight 3:56 AM CDT 11:16 PM CDT
Moon No Moon Rise 11:08 AM CDT (6/27)
Length of Visible Light 16h 13m
Length of Day
15h 06m
Waning Gibbous, 76% of the Moon is Illuminated
Jun 27
Waning Gibbous
Jun 29
Last Quarter
Jul 8
New
Jul 15
First Quarter
Jul 22
Full

Hourly Weather History & Observations

Time (CDT) Temp. Heat Index Dew Point Humidity Pressure Visibility Wind Dir Wind Speed Gust Speed Precip Events Conditions
12:53 AM 77.0 °F - 64.0 °F 64% 29.88 in 10.0 mi SE 5.8 mph - N/A   Clear
1:53 AM 77.0 °F - 64.0 °F 64% 29.87 in 10.0 mi SE 5.8 mph - N/A   Clear
2:53 AM 77.0 °F - 63.0 °F 62% 29.88 in 10.0 mi SE 5.8 mph - N/A   Clear
3:53 AM 75.0 °F - 64.0 °F 69% 29.87 in 10.0 mi SE 6.9 mph - N/A   Clear
4:53 AM 75.9 °F - 64.0 °F 67% 29.86 in 10.0 mi SE 5.8 mph - N/A   Clear
5:50 AM 73.4 °F - 66.2 °F 78% 29.96 in 10.0 mi Calm Calm - 0.02 in Thunderstorm Partly Cloudy
5:53 AM 75.0 °F - 66.0 °F 73% 29.91 in 10.0 mi Calm Calm - 0.02 in Thunderstorm Clear
6:51 AM 80.6 °F 81.5 °F 60.8 °F 51% 29.92 in 10.0 mi South 11.5 mph 20.7 mph N/A   Clear
6:53 AM 82.0 °F 82.1 °F 59.0 °F 45% 29.86 in 10.0 mi South 13.8 mph 20.7 mph N/A   Clear
6:55 AM 82.4 °F 82.5 °F 59.0 °F 45% 29.92 in 10.0 mi South 12.7 mph 20.7 mph N/A Thunderstorm Clear
7:17 AM 75.2 °F - 64.4 °F 69% 29.97 in 10.0 mi NNE 17.3 mph 25.3 mph N/A Thunderstorm Scattered Clouds
7:18 AM 75.2 °F - 66.2 °F 73% 29.97 in 9.0 mi NNE 13.8 mph 25.3 mph N/A Thunderstorm Scattered Clouds
7:21 AM 73.4 °F - 66.2 °F 78% 29.96 in 8.0 mi NNE 15.0 mph 25.3 mph 0.00 in Rain , Thunderstorm Rain
7:53 AM 75.0 °F - 64.0 °F 69% 29.86 in 10.0 mi SSE 13.8 mph - 0.07 in Thunderstorm Scattered Clouds
8:03 AM 73.4 °F - 64.4 °F 73% 29.92 in 10.0 mi SSE 10.4 mph - N/A   Partly Cloudy
8:53 AM 73.0 °F - 68.0 °F 84% 29.90 in 10.0 mi SE 4.6 mph - N/A   Partly Cloudy
9:53 AM 75.9 °F - 68.0 °F 76% 29.93 in 10.0 mi East 12.7 mph - N/A   Scattered Clouds
10:53 AM 80.1 °F 82.7 °F 68.0 °F 67% 29.92 in 10.0 mi ESE 10.4 mph - N/A   Clear
11:53 AM 82.9 °F 87.0 °F 70.0 °F 65% 29.95 in 10.0 mi ENE 15.0 mph - N/A   Clear
12:53 PM 82.9 °F 84.6 °F 64.9 °F 54% 29.97 in 10.0 mi ENE 18.4 mph 26.5 mph N/A   Clear
1:53 PM 84.0 °F 86.5 °F 66.9 °F 56% 29.98 in 10.0 mi ENE 18.4 mph 23.0 mph N/A   Clear
2:53 PM 84.9 °F 87.1 °F 66.0 °F 53% 29.99 in 10.0 mi East 15.0 mph 25.3 mph N/A   Clear
3:53 PM 84.9 °F 86.6 °F 64.9 °F 51% 29.98 in 10.0 mi ENE 15.0 mph - N/A   Clear
4:53 PM 84.9 °F 85.9 °F 63.0 °F 48% 29.96 in 10.0 mi NE 11.5 mph - N/A   Clear
5:53 PM 86.0 °F 86.8 °F 63.0 °F 46% 29.94 in 10.0 mi ENE 9.2 mph - N/A   Clear
6:53 PM 87.1 °F 88.3 °F 64.0 °F 46% 29.95 in 10.0 mi East 9.2 mph - N/A   Clear
7:53 PM 84.9 °F 87.1 °F 66.0 °F 53% 29.96 in 10.0 mi NE 9.2 mph - N/A   Clear
8:53 PM 81.0 °F 83.8 °F 68.0 °F 65% 29.97 in 10.0 mi NE 4.6 mph - N/A   Clear
9:53 PM 78.1 °F - 66.9 °F 68% 29.99 in 10.0 mi SSE 3.5 mph - N/A   Clear
10:53 PM 73.9 °F - 66.9 °F 79% 30.01 in 10.0 mi SSE 5.8 mph - N/A   Clear
11:53 PM 73.0 °F - 68.0 °F 84% 30.02 in 10.0 mi SSW 3.5 mph - N/A   Clear